Time,TemperatureF,DewpointF,PressureIn,WindDirection,WindDirectionDegrees,WindSpeedMPH,WindSpeedGustMPH,Humidity,HourlyPrecipIn,Conditions,Clouds,dailyrainin,SoftwareType,DateUTC
2013-09-22 00:02:00,-999.0,-99.9,-100.00,WNW,293,5.0,-999.0,-999,-99.99,,,-99.99,,2013-09-22 04:02:00,
2013-09-22 00:14:00,66.0,62.0,-100.00,WNW,293,5.0,-999.0,85,-99.99,,,-99.99,,2013-09-22 04:14:00,
2013-09-22 00:23:00,64.0,60.0,-100.00,SSW,201,14.0,-999.0,86,-99.99,,,-99.99,,2013-09-22 04:23:00,
2013-09-22 00:33:00,64.0,60.0,-100.00,SSW,201,14.0,-999.0,86,-99.99,,,-99.99,,2013-09-22 04:33:00,
2013-09-22 01:13:00,60.0,57.0,-100.00,SSE,157,2.0,-999.0,89,-99.99,,,-99.99,,2013-09-22 05:13:00,
2013-09-22 01:23:00,60.0,57.0,-100.00,North,0,0.0,-999.0,89,-99.99,,,-99.99,,2013-09-22 05:23:00,
2013-09-22 01:43:00,60.0,57.0,-100.00,North,0,0.0,-999.0,89,-99.99,,,-99.99,,2013-09-22 05:43:00,
2013-09-22 02:12:00,60.0,57.0,-100.00,North,0,0.0,-999.0,90,-99.99,,,-99.99,,2013-09-22 06:12:00,
2013-09-22 02:22:00,60.0,57.0,-100.00,North,0,0.0,-999.0,90,-99.99,,,-99.99,,2013-09-22 06:22:00,
2013-09-22 02:42:00,60.0,57.0,-100.00,North,0,0.0,-999.0,90,-99.99,,,-99.99,,2013-09-22 06:42:00,
2013-09-22 03:12:00,60.0,58.0,-100.00,North,0,0.0,-999.0,91,-99.99,,,-99.99,,2013-09-22 07:12:00,
2013-09-22 03:22:00,60.0,58.0,-100.00,NE,49,0.0,-999.0,91,-99.99,,,-99.99,,2013-09-22 07:22:00,
2013-09-22 03:42:00,60.0,58.0,-100.00,North,0,0.0,-999.0,91,-99.99,,,-99.99,,2013-09-22 07:42:00,
2013-09-22 04:12:00,60.0,58.0,-100.00,North,0,0.0,-999.0,92,-99.99,,,-99.99,,2013-09-22 08:12:00,
2013-09-22 04:22:00,60.0,58.0,-100.00,North,0,0.0,-999.0,92,-99.99,,,-99.99,,2013-09-22 08:22:00,
2013-09-22 04:42:00,60.0,58.0,-100.00,North,0,0.0,-999.0,92,-99.99,,,-99.99,,2013-09-22 08:42:00,
2013-09-22 04:52:00,60.0,58.0,-100.00,North,0,0.0,-999.0,93,-99.99,,,-99.99,,2013-09-22 08:52:00,
2013-09-22 05:02:00,60.0,58.0,-100.00,North,0,0.0,-999.0,93,-99.99,,,-99.99,,2013-09-22 09:02:00,
2013-09-22 05:22:00,58.0,56.0,-100.00,SW,232,6.0,-999.0,92,-99.99,,,-99.99,,2013-09-22 09:22:00,
2013-09-22 05:43:00,57.0,55.0,-100.00,SE,139,5.0,-999.0,92,-99.99,,,-99.99,,2013-09-22 09:43:00,
2013-09-22 05:54:00,57.0,55.0,-100.00,ENE,59,2.0,-999.0,92,-99.99,,,-99.99,,2013-09-22 09:54:00,
2013-09-22 06:04:00,57.0,55.0,-100.00,ENE,59,2.0,-999.0,92,-99.99,,,-99.99,,2013-09-22 10:04:00,
2013-09-22 06:44:00,56.0,54.0,-100.00,East,92,5.0,-999.0,92,-99.99,,,-99.99,,2013-09-22 10:44:00,
2013-09-22 06:53:00,56.0,54.0,-100.00,SSW,198,5.0,-999.0,92,-99.99,,,-99.99,,2013-09-22 10:53:00,
2013-09-22 07:22:00,55.0,53.0,-100.00,North,0,0.0,-999.0,92,-99.99,,,-99.99,,2013-09-22 11:22:00,
2013-09-22 07:42:00,55.0,52.0,-100.00,North,0,0.0,-999.0,91,-99.99,,,-99.99,,2013-09-22 11:42:00,
2013-09-22 07:52:00,54.0,52.0,-100.00,North,0,0.0,-999.0,91,-99.99,,,-99.99,,2013-09-22 11:52:00,
2013-09-22 08:02:00,54.0,52.0,-100.00,North,0,0.0,-999.0,91,-99.99,,,-99.99,,2013-09-22 12:02:00,
2013-09-22 08:22:00,56.0,53.0,-100.00,East,92,2.0,-999.0,90,-99.99,,,-99.99,,2013-09-22 12:22:00,
2013-09-22 08:42:00,56.0,53.0,-100.00,South,184,4.0,-999.0,89,-99.99,,,-99.99,,2013-09-22 12:42:00,
2013-09-22 09:22:00,60.0,56.0,-100.00,North,0,0.0,-999.0,87,-99.99,,,-99.99,,2013-09-22 13:22:00,
2013-09-22 09:42:00,61.0,57.0,-100.00,East,88,2.0,-999.0,87,-99.99,,,-99.99,,2013-09-22 13:42:00,
2013-09-22 10:22:00,60.0,55.0,-100.00,ESE,111,2.0,-999.0,82,-99.99,,,-99.99,,2013-09-22 14:22:00,
2013-09-22 10:42:00,60.0,53.0,-100.00,East,90,3.0,-999.0,79,-99.99,,,-99.99,,2013-09-22 14:42:00,
2013-09-22 10:53:00,60.0,53.0,-100.00,SSW,202,4.0,-999.0,76,-99.99,,,-99.99,,2013-09-22 14:53:00,
2013-09-22 11:02:00,60.0,53.0,-100.00,SSW,202,4.0,-999.0,76,-99.99,,,-99.99,,2013-09-22 15:02:00,
2013-09-22 11:23:00,59.0,51.0,-100.00,SSW,195,8.0,-999.0,75,-99.99,,,-99.99,,2013-09-22 15:23:00,
2013-09-22 11:44:00,61.0,53.0,-100.00,ESE,109,8.0,-999.0,73,-99.99,,,-99.99,,2013-09-22 15:44:00,
2013-09-22 12:24:00,62.0,53.0,-100.00,WNW,284,9.0,-999.0,71,-99.99,,,-99.99,,2013-09-22 16:24:00,
2013-09-22 12:43:00,65.0,55.0,-100.00,WNW,283,7.0,-999.0,68,-99.99,,,-99.99,,2013-09-22 16:43:00,
2013-09-22 12:54:00,64.0,54.0,-100.00,SSW,205,3.0,-999.0,69,-99.99,,,-99.99,,2013-09-22 16:54:00,
2013-09-22 13:04:00,64.0,54.0,-100.00,SSW,205,3.0,-999.0,69,-99.99,,,-99.99,,2013-09-22 17:04:00,
2013-09-22 13:23:00,63.0,52.0,-100.00,SE,141,5.0,-999.0,68,-99.99,,,-99.99,,2013-09-22 17:23:00,
2013-09-22 13:43:00,62.0,51.0,-100.00,ESE,107,2.0,-999.0,67,-99.99,,,-99.99,,2013-09-22 17:43:00,
2013-09-22 13:53:00,61.0,50.0,-100.00,SSW,193,7.0,-999.0,66,-99.99,,,-99.99,,2013-09-22 17:53:00,
2013-09-22 14:03:00,61.0,50.0,-100.00,SSW,193,7.0,-999.0,66,-99.99,,,-99.99,,2013-09-22 18:03:00,
2013-09-22 14:22:00,63.0,52.0,-100.00,SSE,161,8.0,-999.0,65,-99.99,,,-99.99,,2013-09-22 18:22:00,
2013-09-22 14:42:00,61.0,49.0,-100.00,East,82,8.0,-999.0,64,-99.99,,,-99.99,,2013-09-22 18:42:00,
2013-09-22 15:11:00,61.0,49.0,-100.00,SE,124,6.0,-999.0,65,-99.99,,,-99.99,,2013-09-22 19:11:00,
2013-09-22 15:22:00,63.0,50.0,-100.00,SSE,155,8.0,-999.0,62,-99.99,,,-99.99,,2013-09-22 19:22:00,
2013-09-22 15:42:00,62.0,48.0,-100.00,SE,144,11.0,-999.0,60,-99.99,,,-99.99,,2013-09-22 19:42:00,
2013-09-22 16:12:00,63.0,49.0,-100.00,South,183,6.0,-999.0,59,-99.99,,,-99.99,,2013-09-22 20:12:00,
2013-09-22 16:22:00,61.0,46.0,-100.00,SE,134,8.0,-999.0,56,-99.99,,,-99.99,,2013-09-22 20:22:00,
2013-09-22 16:42:00,63.0,46.0,-100.00,SSW,192,13.0,-999.0,54,-99.99,,,-99.99,,2013-09-22 20:42:00,
2013-09-22 17:12:00,60.0,44.0,-100.00,South,177,8.0,-999.0,56,-99.99,,,-99.99,,2013-09-22 21:12:00,
2013-09-22 17:23:00,60.0,44.0,-100.00,East,80,5.0,-999.0,56,-99.99,,,-99.99,,2013-09-22 21:23:00,
2013-09-22 17:45:00,60.0,44.0,-100.00,ESE,106,9.0,-999.0,56,-99.99,,,-99.99,,2013-09-22 21:45:00,
2013-09-22 18:14:00,59.0,43.0,-100.00,ESE,120,9.0,-999.0,56,-99.99,,,-99.99,,2013-09-22 22:14:00,
2013-09-22 18:24:00,58.0,43.0,-100.00,SSE,158,9.0,-999.0,56,-99.99,,,-99.99,,2013-09-22 22:24:00,
2013-09-22 18:43:00,57.0,42.0,-100.00,SE,137,9.0,-999.0,57,-99.99,,,-99.99,,2013-09-22 22:43:00,
2013-09-22 19:12:00,57.0,42.0,-100.00,SE,144,9.0,-999.0,58,-99.99,,,-99.99,,2013-09-22 23:12:00,
2013-09-22 19:22:00,56.0,42.0,-100.00,SSE,167,9.0,-999.0,59,-99.99,,,-99.99,,2013-09-22 23:22:00,
2013-09-22 19:43:00,56.0,42.0,-100.00,SSE,159,7.0,-999.0,59,-99.99,,,-99.99,,2013-09-22 23:43:00,
2013-09-22 20:12:00,55.0,42.0,-100.00,SSE,164,7.0,-999.0,60,-99.99,,,-99.99,,2013-09-23 00:12:00,
2013-09-22 20:23:00,55.0,42.0,-100.00,South,179,11.0,-999.0,61,-99.99,,,-99.99,,2013-09-23 00:23:00,
2013-09-22 20:42:00,55.0,42.0,-100.00,South,184,8.0,-999.0,62,-99.99,,,-99.99,,2013-09-23 00:42:00,
2013-09-22 21:12:00,54.0,42.0,-100.00,SSW,203,10.0,-999.0,63,-99.99,,,-99.99,,2013-09-23 01:12:00,
2013-09-22 21:22:00,54.0,42.0,-100.00,East,90,4.0,-999.0,64,-99.99,,,-99.99,,2013-09-23 01:22:00,
2013-09-22 21:43:00,54.0,42.0,-100.00,South,190,4.0,-999.0,64,-99.99,,,-99.99,,2013-09-23 01:43:00,
2013-09-22 21:52:00,53.0,42.0,-100.00,East,97,4.0,-999.0,65,-99.99,,,-99.99,,2013-09-23 01:52:00,
2013-09-22 22:02:00,53.0,42.0,-100.00,East,97,4.0,-999.0,65,-99.99,,,-99.99,,2013-09-23 02:02:00,
2013-09-22 22:22:00,53.0,42.0,-100.00,SE,128,4.0,-999.0,66,-99.99,,,-99.99,,2013-09-23 02:22:00,
2013-09-22 22:42:00,53.0,42.0,-100.00,East,97,4.0,-999.0,66,-99.99,,,-99.99,,2013-09-23 02:42:00,
2013-09-22 22:52:00,52.0,41.0,-100.00,ESE,111,4.0,-999.0,67,-99.99,,,-99.99,,2013-09-23 02:52:00,
2013-09-22 23:03:00,52.0,41.0,-100.00,ESE,111,4.0,-999.0,67,-99.99,,,-99.99,,2013-09-23 03:03:00,
2013-09-22 23:23:00,52.0,42.0,-100.00,ESE,109,4.0,-999.0,67,-99.99,,,-99.99,,2013-09-23 03:23:00,
2013-09-22 23:44:00,52.0,41.0,-100.00,ESE,112,2.0,-999.0,67,-99.99,,,-99.99,,2013-09-23 03:44:00,
2013-09-22 23:54:00,51.0,41.0,-100.00,SE,127,4.0,-999.0,68,-99.99,,,-99.99,,2013-09-23 03:54:00,